Home > Time Zones > World Clock > Weather > Italy > Monza > Past weeks

Flag for Italy Weather past 2 weeks in Monza, Italy

Now
64 °F

Clear.


Feels Like: 64 °F
Forecast: 56 / 75 °F
Wind: 6 mph from Northeast

Location: Milan / Linate

Current Time: Sep 3, 2014 at 1:45:27 AM

Latest Report: Sep 3, 2014 at 12:50 AM


Visibility: 10 mi

Pressure: 29.95 "Hg

Humidity: 73%

Dew point: 55 °F

Location of MonzaLocation

Historic Weather in Monza — Graph

°F

Monza temperature yesterday

Maximum temperature yesterday: 79 °F (at 2:50 PM)
Minimum temperature yesterday: 55 °F (at 6:20 AM)
Average temperature yesterday: 68 °F

Past Weeks' High & Low Weather Summary

 TemperatureHumidityPressure
High82 °F (Aug 27, 3:50 PM)100% (Aug 19, 4:50 AM)30.09 "Hg (Aug 19, 4:50 AM)
Low55 °F (Sep 2, 6:20 AM)24% (Sep 1, 1:50 PM)29.71 "Hg (Aug 31, 10:20 PM)
Average69 °F77%29.93 "Hg
* Reported Aug 19 12:20 AM — Sep 3 12:50 AM, Monza, Weather by CustomWeather, © 2014

Note: Actual official high and low records may vary slightly from our data, if they occured in-between our weather recording intervals... More about our weather records

Advertising

Monza weather history for previous 24 hours

 ConditionsComfort  
Time TempWeatherWind HumidityBarometerVisibility
12:50 AM
Sep 3
64 °FClear.6 mph73%29.95 "Hg10 mi
12:20 AM64 °FClear.5 mph78%29.95 "Hg10 mi
11:50 PM
Sep 2
64 °FClear.5 mph78%29.95 "Hg10 mi
11:20 PM66 °FPassing clouds.5 mph73%29.95 "HgN/A
10:50 PM66 °FPassing clouds.5 mph73%29.92 "HgN/A
10:20 PM66 °FClear.5 mph73%29.92 "Hg10 mi
9:50 PM68 °FClear.5 mph64%29.92 "Hg10 mi
9:20 PM70 °FPassing clouds.3 mph60%29.92 "HgN/A
8:50 PM70 °FSunny.5 mph60%29.89 "Hg10 mi
8:20 PM72 °FSunny.6 mph53%29.89 "Hg10 mi
7:50 PM73 °FSunny.8 mph50%29.86 "Hg10 mi
7:20 PM75 °FPassing clouds.6 mph44%29.86 "HgN/A
6:50 PM77 °FPassing clouds.5 mph39%29.86 "HgN/A
6:20 PM77 °FPassing clouds.7 mph36%29.86 "HgN/A
5:50 PM77 °FPassing clouds.6 mph34%29.86 "HgN/A
5:20 PM79 °FPassing clouds.6 mph32%29.86 "HgN/A
4:50 PM79 °FSunny.2 mph30%29.86 "Hg10 mi
4:20 PM79 °FSunny.5 mph34%29.86 "Hg10 mi
3:50 PM79 °FPassing clouds.5 mph30%29.86 "HgN/A
3:20 PM79 °FPassing clouds.6 mph34%29.86 "HgN/A
2:50 PM79 °FPassing clouds.6 mph37%29.86 "HgN/A
2:20 PM77 °FPassing clouds.5 mph39%29.86 "HgN/A
1:50 PM77 °FSunny.5 mph36%29.86 "Hg10 mi
1:20 PM75 °FPassing clouds.5 mph39%29.86 "HgN/A
12:50 PM75 °FPassing clouds.7 mph36%29.86 "HgN/A
12:20 PM75 °FPassing clouds.7 mph39%29.86 "HgN/A
11:50 AM73 °FPassing clouds.7 mph36%29.89 "HgN/A
11:20 AM73 °FPassing clouds.7 mph36%29.86 "HgN/A
10:50 AM72 °FPassing clouds.5 mph41%29.89 "HgN/A
10:20 AM70 °FPassing clouds.5 mph43%29.89 "HgN/A
9:50 AM68 °FPassing clouds.5 mph49%29.89 "HgN/A
9:20 AM68 °FPassing clouds.3 mph49%29.89 "HgN/A
8:50 AM66 °FSunny.2 mph60%29.86 "Hg10 mi
8:20 AM64 °FSunny.2 mph64%29.86 "Hg10 mi
7:50 AM61 °FSunny.1 mph68%29.86 "Hg10 mi
7:20 AM57 °FClear.1 mph82%29.86 "Hg10 mi
6:50 AM57 °FClear.No wind77%29.86 "Hg10 mi
6:20 AM55 °FClear.2 mph82%29.86 "Hg10 mi
5:50 AM57 °FClear.No wind77%29.86 "Hg10 mi
5:20 AM57 °FClear.1 mph77%29.86 "Hg10 mi
4:50 AM57 °FClear.1 mph82%29.83 "Hg10 mi
4:20 AM59 °FPassing clouds.3 mph77%29.86 "HgN/A
3:50 AM57 °FClear.No wind77%29.83 "Hg10 mi
3:20 AM57 °FClear.2 mph72%29.83 "Hg10 mi
2:50 AM61 °FClear.2 mph68%29.86 "Hg10 mi
2:20 AM59 °FClear.1 mph72%29.86 "Hg10 mi
1:50 AM61 °FClear.2 mph63%29.86 "Hg10 mi
1:20 AM63 °FClear.No wind64%29.86 "Hg10 mi
Weather by CustomWeather, © 2014

See weather overviewHow to use our weather pages